| time (UTC) | temp C | wind direction | speed KPH | gust KPH | rain 1hr cm | rain 24hr cm | rain mn cm | humidity % | barometer mb |
| 20260831035134 | 15 | 342 | 6.4 | 11.3 | 0.00 | 0.20 | 0.05 | 91 | 1002.6 |
| 20260831034234 | 15 | 340 | 4.8 | 14.5 | 0.00 | 0.28 | 0.05 | 91 | 1002.4 |
| 20260831033335 | 15 | 353 | 4.8 | 9.7 | 0.00 | 0.36 | 0.05 | 91 | 1002.6 |
| 20260831032434 | 15 | 331 | 6.4 | 12.9 | 0.00 | 0.43 | 0.05 | 91 | 1002.4 |
| 20260831030634 | 15 | 352 | 8.0 | 17.7 | 0.03 | 0.51 | 0.05 | 90 | 1002.1 |
| 20260831023934 | 15 | 304 | 6.4 | 12.9 | 0.05 | 0.61 | 0.05 | 90 | 1002.0 |
| 20260831023035 | 15 | 318 | 6.4 | 12.9 | 0.05 | 0.61 | 0.05 | 90 | 1002.0 |
| 20260831022135 | 15 | 340 | 6.4 | 12.9 | 0.05 | 0.61 | 0.05 | 90 | 1001.9 |
| 20260831021234 | 15 | 320 | 4.8 | 11.3 | 0.05 | 0.64 | 0.05 | 90 | 1001.8 |
| 20260831015434 | 15 | 302 | 4.8 | 12.9 | 0.00 | 0.61 | 0.00 | 90 | 1001.7 |
| 20260831014534 | 14 | 335 | 4.8 | 12.9 | 0.00 | 0.61 | 0.00 | 89 | 1001.4 |
| 20260831013634 | 14 | 344 | 6.4 | 11.3 | 0.00 | 0.61 | 0.00 | 89 | 1001.2 |
| 20260831012734 | 15 | 334 | 6.4 | 11.3 | 0.00 | 0.61 | 0.00 | 89 | 1001.4 |
| 20260831011834 | 15 | 352 | 6.4 | 9.7 | 0.00 | 0.61 | 0.00 | 89 | 1001.2 |
| 20260831010934 | 15 | 330 | 6.4 | 12.9 | 0.00 | 0.61 | 0.00 | 89 | 1001.3 |
| 20260831005134 | 15 | 328 | 4.8 | 12.9 | 0.00 | 0.61 | 0.00 | 89 | 1001.1 |
| 20260831004234 | 15 | 345 | 3.2 | 6.4 | 0.00 | 0.61 | 0.00 | 88 | 1001.1 |
| 20260831003334 | 15 | 330 | 3.2 | 9.7 | 0.00 | 0.61 | 0.00 | 88 | 1001.1 |
| 20260831001534 | 15 | 293 | 1.6 | 3.2 | 0.00 | 0.61 | 0.00 | 88 | 1000.9 |
| 20260831000634 | 15 | 326 | 1.6 | 3.2 | 0.00 | 0.61 | 0.00 | 87 | 1000.9 |
| 20260830235734 | 15 | 329 | 0.0 | 3.2 | 0.00 | 0.61 | 0.00 | 87 | 1000.7 |
| 20260830234834 | 15 | 339 | 0.0 | 3.2 | 0.00 | 0.61 | 0.00 | 87 | 1000.7 |
| 20260830233934 | 15 | 337 | 1.6 | 3.2 | 0.00 | 0.61 | 0.00 | 87 | 1000.6 |
| 20260830233034 | 15 | 320 | 1.6 | 4.8 | 0.00 | 0.61 | 0.00 | 87 | 1000.6 |
| 20260830232135 | 14 | 349 | 1.6 | 3.2 | 0.00 | 0.61 | 0.00 | 86 | 1000.4 |
| 20260830231235 | 14 | 46 | 1.6 | 3.2 | 0.00 | 0.61 | 0.00 | 86 | 1000.4 |
| 20260830230334 | 15 | 25 | 1.6 | 4.8 | 0.00 | 0.61 | 0.00 | 86 | 1000.4 |
| 20260830225434 | 15 | 334 | 1.6 | 4.8 | 0.00 | 0.61 | 0.61 | 86 | 1000.6 |
| 20260830224535 | 15 | 25 | 3.2 | 6.4 | 0.00 | 0.61 | 0.61 | 86 | 1000.3 |
| 20260830223634 | 15 | 42 | 3.2 | 6.4 | 0.00 | 0.61 | 0.61 | 85 | 999.9 |
| 20260830222734 | 15 | 30 | 3.2 | 8.0 | 0.00 | 0.61 | 0.61 | 85 | 1000.2 |
| 20260830221834 | 15 | 50 | 3.2 | 6.4 | 0.00 | 0.61 | 0.61 | 85 | 1000.1 |
| 20260830220934 | 15 | 31 | 3.2 | 6.4 | 0.00 | 0.61 | 0.61 | 85 | 1000.1 |
| 20260830220034 | 15 | 31 | 4.8 | 9.7 | 0.00 | 0.61 | 0.61 | 84 | 999.8 |
| 20260830215134 | 14 | 53 | 1.6 | 6.4 | 0.00 | 0.64 | 0.61 | 83 | 999.7 |
| 20260830213334 | 13 | 338 | 1.6 | 4.8 | 0.00 | 0.64 | 0.61 | 82 | 999.7 |
| 20260830212434 | 13 | 347 | 3.2 | 4.8 | 0.00 | 0.64 | 0.61 | 82 | 999.3 |
| 20260830211534 | 13 | 349 | 1.6 | 4.8 | 0.00 | 0.66 | 0.61 | 82 | 999.1 |
| 20260830210634 | 13 | 270 | 0.0 | 1.6 | 0.00 | 0.66 | 0.61 | 82 | 999.2 |
| 20260830204834 | 14 | 326 | 1.6 | 3.2 | 0.00 | 0.69 | 0.61 | 81 | 999.1 |
| 20260830203934 | 14 | 40 | 0.0 | 3.2 | 0.00 | 0.69 | 0.61 | 81 | 998.8 |
| 20260830203034 | 14 | 45 | 0.0 | 3.2 | 0.00 | 0.71 | 0.61 | 81 | 999.2 |
| 20260830202134 | 15 | 135 | 0.0 | 3.2 | 0.00 | 0.71 | 0.61 | 81 | 999.1 |
| 20260830201234 | 15 | 318 | 1.6 | 3.2 | 0.00 | 0.76 | 0.61 | 81 | 999.0 |
| 20260830200334 | 15 | 49 | 1.6 | 3.2 | 0.00 | 0.79 | 0.61 | 81 | 999.1 |
| 20260830195434 | 15 | 69 | 1.6 | 3.2 | 0.00 | 0.79 | 0.61 | 80 | 999.0 |
| 20260830194535 | 15 | 69 | 1.6 | 3.2 | 0.00 | 0.81 | 0.61 | 80 | 999.0 |
| 20260830193634 | 15 | 62 | 1.6 | 4.8 | 0.00 | 0.81 | 0.61 | 80 | 998.8 |
| 20260830192734 | 15 | 91 | 1.6 | 3.2 | 0.00 | 0.81 | 0.61 | 80 | 998.9 |
| 20260830191834 | 15 | 98 | 1.6 | 4.8 | 0.00 | 0.84 | 0.61 | 79 | 998.6 |
| 20260830190934 | 15 | 111 | 1.6 | 6.4 | 0.00 | 0.84 | 0.61 | 79 | 998.7 |
| 20260830190034 | 15 | 156 | 1.6 | 4.8 | 0.00 | 0.86 | 0.61 | 78 | 998.6 |
| 20260830185134 | 15 | 145 | 3.2 | 8.0 | 0.00 | 0.86 | 0.61 | 78 | 998.7 |
| 20260830184234 | 15 | 120 | 3.2 | 6.4 | 0.00 | 0.86 | 0.61 | 78 | 998.7 |
| 20260830183334 | 15 | 116 | 3.2 | 6.4 | 0.00 | 0.89 | 0.61 | 77 | 998.5 |
| 20260830181534 | 15 | 111 | 1.6 | 4.8 | 0.03 | 0.89 | 0.61 | 77 | 998.7 |
| 20260830180634 | 15 | 120 | 3.2 | 6.4 | 0.03 | 0.89 | 0.61 | 77 | 998.7 |
| 20260830173934 | 16 | 117 | 3.2 | 6.4 | 0.03 | 0.94 | 0.61 | 76 | 998.3 |
| 20260830172134 | 16 | 158 | 4.8 | 8.0 | 0.03 | 0.94 | 0.61 | 75 | 998.4 |
| 20260830171234 | 16 | 163 | 6.4 | 11.3 | 0.00 | 0.94 | 0.56 | 75 | 998.7 |
| 20260830165434 | 16 | 166 | 9.7 | 16.1 | 0.03 | 0.94 | 0.56 | 74 | 998.9 |
| 20260830164534 | 17 | 174 | 9.7 | 17.7 | 0.05 | 0.94 | 0.56 | 74 | 998.8 |
| 20260830163634 | 17 | 168 | 11.3 | 17.7 | 0.05 | 0.94 | 0.56 | 73 | 998.7 |
| 20260830161834 | 18 | 155 | 4.8 | 8.0 | 0.05 | 0.94 | 0.56 | 72 | 998.7 |
| 20260830160934 | 18 | 144 | 3.2 | 9.7 | 0.05 | 0.94 | 0.56 | 72 | 998.5 |
| 20260830155134 | 17 | 174 | 6.4 | 12.9 | 0.03 | 0.89 | 0.53 | 69 | 998.6 |
| 20260830154234 | 18 | 142 | 4.8 | 6.4 | 0.00 | 0.86 | 0.51 | 66 | 998.6 |
| 20260830153334 | 18 | 135 | 6.4 | 12.9 | 0.00 | 0.86 | 0.51 | 65 | 998.6 |
| 20260830152434 | 18 | 114 | 6.4 | 12.9 | 0.00 | 0.86 | 0.51 | 64 | 998.6 |
| 20260830151534 | 18 | 156 | 4.8 | 8.0 | 0.00 | 0.89 | 0.51 | 65 | 998.6 |
| 20260830150634 | 18 | 122 | 4.8 | 6.4 | 0.00 | 0.89 | 0.51 | 64 | 998.6 |
| 20260830145734 | 18 | 118 | 6.4 | 14.5 | 0.00 | 0.89 | 0.51 | 63 | 998.9 |
| 20260830144834 | 18 | 130 | 6.4 | 14.5 | 0.00 | 0.89 | 0.51 | 63 | 998.8 |
| 20260830143934 | 18 | 96 | 4.8 | 11.3 | 0.00 | 0.89 | 0.51 | 63 | 998.7 |
| 20260830143034 | 19 | 88 | 6.4 | 12.9 | 0.00 | 0.94 | 0.51 | 63 | 998.9 |
| 20260830142134 | 18 | 106 | 6.4 | 12.9 | 0.00 | 0.94 | 0.51 | 61 | 999.1 |
| 20260830141234 | 18 | 98 | 6.4 | 12.9 | 0.00 | 0.94 | 0.51 | 58 | 998.8 |
| 20260830135434 | 20 | 167 | 4.8 | 12.9 | 0.00 | 0.94 | 0.51 | 55 | 999.4 |
| 20260830134534 | 20 | 134 | 4.8 | 8.0 | 0.00 | 0.94 | 0.51 | 58 | 999.3 |
| 20260830133634 | 20 | 169 | 6.4 | 11.3 | 0.00 | 0.94 | 0.51 | 60 | 999.2 |
| 20260830132734 | 18 | 165 | 8.0 | 12.9 | 0.00 | 0.94 | 0.51 | 60 | 999.4 |
| 20260830130034 | 18 | 176 | 8.0 | 17.7 | 0.00 | 0.94 | 0.51 | 60 | 999.6 |
| 20260830125134 | 18 | 161 | 9.7 | 17.7 | 0.00 | 0.94 | 0.51 | 60 | 999.8 |
| 20260830124234 | 18 | 173 | 11.3 | 17.7 | 0.00 | 0.94 | 0.51 | 60 | 999.7 |
| 20260830122434 | 18 | 172 | 11.3 | 24.1 | 0.00 | 0.94 | 0.51 | 62 | 999.7 |
| 20260830121535 | 17 | 179 | 12.9 | 17.7 | 0.00 | 0.94 | 0.51 | 63 | 1000.0 |
| 20260830120634 | 17 | 176 | 11.3 | 17.7 | 0.00 | 0.94 | 0.51 | 65 | 1000.0 |
| 20260830114834 | 17 | 168 | 12.9 | 20.9 | 0.00 | 0.94 | 0.51 | 68 | 1000.2 |
| 20260830113935 | 17 | 181 | 12.9 | 19.3 | 0.00 | 0.94 | 0.51 | 66 | 1000.2 |
| 20260830113036 | 17 | 176 | 14.5 | 19.3 | 0.00 | 0.94 | 0.51 | 63 | 1000.2 |
| 20260830112134 | 17 | 173 | 14.5 | 20.9 | 0.00 | 0.94 | 0.51 | 66 | 1000.5 |
| 20260830111236 | 17 | 169 | 12.9 | 20.9 | 0.00 | 0.94 | 0.51 | 65 | 1000.4 |
| 20260830110334 | 17 | 173 | 11.3 | 17.7 | 0.00 | 0.94 | 0.51 | 61 | 1000.5 |
| 20260830105434 | 18 | 181 | 11.3 | 19.3 | 0.00 | 0.94 | 0.51 | 62 | 1000.4 |
| 20260830104534 | 17 | 168 | 11.3 | 17.7 | 0.00 | 0.94 | 0.51 | 63 | 1000.3 |
| 20260830102736 | 17 | 176 | 11.3 | 17.7 | 0.00 | 0.94 | 0.51 | 63 | 1000.6 |
| 20260830101834 | 17 | 172 | 11.3 | 16.1 | 0.00 | 0.94 | 0.51 | 65 | 1000.4 |
| 20260830100934 | 17 | 164 | 11.3 | 17.7 | 0.00 | 0.94 | 0.51 | 70 | 1000.4 |
| 20260830095134 | 17 | 168 | 12.9 | 24.1 | 0.00 | 0.94 | 0.51 | 72 | 1000.7 |
| 20260830094234 | 17 | 171 | 11.3 | 19.3 | 0.00 | 0.94 | 0.51 | 74 | 1000.6 |
| 20260830093334 | 17 | 165 | 9.7 | 12.9 | 0.00 | 0.94 | 0.51 | 79 | 1000.6 |
| 20260830092434 | 16 | 166 | 11.3 | 17.7 | 0.00 | 0.94 | 0.51 | 84 | 1000.6 |
| 20260830091534 | 17 | 154 | 8.0 | 14.5 | 0.00 | 0.94 | 0.51 | 89 | 1000.5 |
| 20260830085734 | 16 | 163 | 8.0 | 12.9 | 0.00 | 0.94 | 0.51 | 91 | 1000.4 |
| 20260830083034 | 15 | 177 | 9.7 | 16.1 | 0.00 | 0.94 | 0.51 | 92 | 1000.8 |
| 20260830082134 | 15 | 177 | 9.7 | 16.1 | 0.00 | 0.94 | 0.51 | 92 | 1000.8 |
| 20260830081234 | 15 | 170 | 8.0 | 16.1 | 0.00 | 0.94 | 0.51 | 92 | 1000.9 |
| 20260830080334 | 15 | 174 | 8.0 | 12.9 | 0.00 | 0.94 | 0.51 | 92 | 1000.9 |
| 20260830075434 | 15 | 177 | 8.0 | 12.9 | 0.00 | 0.94 | 0.51 | 92 | 1000.8 |
| 20260830074534 | 15 | 170 | 6.4 | 8.0 | 0.00 | 0.94 | 0.51 | 91 | 1000.5 |
| 20260830073636 | 15 | 164 | 4.8 | 8.0 | 0.00 | 0.94 | 0.51 | 91 | 1000.7 |
| 20260830072734 | 15 | 163 | 3.2 | 6.4 | 0.00 | 0.94 | 0.51 | 91 | 1000.8 |
| 20260830070934 | 15 | 170 | 4.8 | 6.4 | 0.00 | 0.94 | 0.51 | 91 | 1000.7 |
| 20260830070034 | 15 | 177 | 3.2 | 6.4 | 0.00 | 0.94 | 0.51 | 91 | 1000.7 |
| 20260830065136 | 14 | 181 | 3.2 | 6.4 | 0.00 | 0.94 | 0.51 | 91 | 1000.7 |
| 20260830063334 | 14 | 146 | 0.0 | 4.8 | 0.00 | 0.94 | 0.51 | 91 | 1000.7 |
| 20260830062436 | 14 | 165 | 0.0 | 3.2 | 0.00 | 0.94 | 0.51 | 91 | 1000.6 |
| 20260830061534 | 14 | 196 | 0.0 | 1.6 | 0.00 | 0.94 | 0.51 | 90 | 1000.5 |
| 20260830060634 | 14 | 198 | 0.0 | 3.2 | 0.00 | 0.94 | 0.51 | 90 | 1000.6 |
| 20260830055734 | 14 | 166 | 1.6 | 4.8 | 0.00 | 0.94 | 0.51 | 90 | 1000.8 |
| 20260830054834 | 14 | 172 | 3.2 | 4.8 | 0.00 | 0.94 | 0.51 | 90 | 1000.7 |
| 20260830051234 | 14 | 178 | 3.2 | 6.4 | 0.00 | 0.94 | 0.51 | 90 | 1000.4 |
| 20260830050334 | 14 | 181 | 1.6 | 3.2 | 0.03 | 0.94 | 0.51 | 90 | 1000.4 |
| 20260830044534 | 14 | 175 | 3.2 | 4.8 | 0.13 | 0.94 | 0.51 | 89 | 1000.7 |
| 20260830043634 | 14 | 176 | 3.2 | 6.4 | 0.18 | 0.94 | 0.51 | 89 | 1000.6 |
| 20260830042734 | 14 | 172 | 3.2 | 6.4 | 0.23 | 0.94 | 0.51 | 89 | 1000.7 |
| 20260830041834 | 14 | 176 | 3.2 | 4.8 | 0.33 | 0.94 | 0.51 | 89 | 1000.8 |
| 20260830040934 | 14 | 181 | 3.2 | 4.8 | 0.33 | 0.89 | 0.48 | 89 | 1000.9 |